| State | Missouri | Latest | Unknown (5140 cfs) | |
| River | Salt River | Rating | Observed | Estimated |
| Updated | 2026-05-09 4:00 (38 minutes ago) | Flood - The river is flooding. Obstacles can be treacherous or deadly. The river should be avoided at this stage for casual trips and definitely for the inexperienced. Trips should be attempted only with protective gear and equipment.Flood | (none) | (none) |
| Discharge | 5140 cfs (median: 1760 cfs) | High - The river is high and potentially dangerous, especially for the young and / or inexperienced. Normal stream obstacles are sometimes difficult to navigate. Extended distances can be attempted, but canoe travel may not be advisable.High | (none) | (none) |
| Height | 8.03 feet | Good - Conditions are ideal for a canoe or kayak. Boats typically will drag on fewer than one-quarter of riffles, if at all, and portages are unnecessary or rare. Normal float lengths can be attempted without a problem.Good | (none) | (none) |
| Trend | Falling (rising over 24 hours) | Low - River is low but can still be floated. Some riffles are okay but most come with significant dragging and might need a portage. Float lengths should be reduced to accommodate low flow, dragging, and portages.Low | (none) | (none) |
| USGS | USGS Site ( Duck Duck Go Maps) | Poor - River is too low to float comfortably. Most or all riffles will drag or must be portaged and some obstacles (such as slick shelf rock) cause undue problems. Avoid the river at this stage for casual paddling trips.Poor | (none) | (none) |
A total of 5 rows are displayed.
| Miles | 64.7 |
| Trips | 5 |
| People | 16 |
| Dates | 5 |
| Years | 5 |
| Months | 2 |
| Rows | 5 |
| Sources | 2 |
BLG - Bluegill
CCF - Channel Catfish
CP - Chain Pickerel
FWD - Freshwater Drum
GSF - Green Sunfish
KSB - Kentucky Spotted Bass
LMB - Largemouth Bass
LSF - Longear Sunfish
RB - Rock Bass / Goggle Eye
RSF - Redear Sunfish
RT - Rainbow Trout
SMB - Smallmouth Bass
WB - White Bass
WF - Whitefish
WL - WalleyeThe classic River Trips application is still available for use. It is updated with the new system using a data retrofit. It is no longer maintained. The original River Trips application is no longer updated (as of 1 Dec 2016) but can be checked for errors or for the condition of the data before it was converted to the new system.
| Observation | Height | Discharge | Maximum Discharge | Minimum Discharge | Mean Discharge | P05 | P10 | P20 | P25 | P50 (Median) | P75 | P80 | P90 | P95 |
|---|---|---|---|---|---|---|---|---|---|---|---|---|---|---|
| 2026-05-09 04:00 | 8.03 | 5140 | 9930 (2010) | 49 (2006) | 2940 | 68 | 91 | 217 | 404 | 1760 | 4510 | 4960 | 8440 | 9590 |
| 2026-05-09 03:30 | 8.21 | 5360 | 9930 (2010) | 49 (2006) | 2940 | 68 | 91 | 217 | 404 | 1760 | 4510 | 4960 | 8440 | 9590 |
| 2026-05-09 03:00 | 8.36 | 5550 | 9930 (2010) | 49 (2006) | 2940 | 68 | 91 | 217 | 404 | 1760 | 4510 | 4960 | 8440 | 9590 |
| 2026-05-09 02:30 | 8.52 | 5750 | 9930 (2010) | 49 (2006) | 2940 | 68 | 91 | 217 | 404 | 1760 | 4510 | 4960 | 8440 | 9590 |
| 2026-05-09 02:00 | 8.61 | 5860 | 9930 (2010) | 49 (2006) | 2940 | 68 | 91 | 217 | 404 | 1760 | 4510 | 4960 | 8440 | 9590 |
| 2026-05-09 01:30 | 8.69 | 5970 | 9930 (2010) | 49 (2006) | 2940 | 68 | 91 | 217 | 404 | 1760 | 4510 | 4960 | 8440 | 9590 |
| 2026-05-09 01:00 | 8.75 | 6040 | 9930 (2010) | 49 (2006) | 2940 | 68 | 91 | 217 | 404 | 1760 | 4510 | 4960 | 8440 | 9590 |
| 2026-05-09 00:30 | 8.71 | 5990 | 9930 (2010) | 49 (2006) | 2940 | 68 | 91 | 217 | 404 | 1760 | 4510 | 4960 | 8440 | 9590 |
| 2026-05-09 00:00 | 8.71 | 5990 | 9930 (2010) | 49 (2006) | 2940 | 68 | 91 | 217 | 404 | 1760 | 4510 | 4960 | 8440 | 9590 |
| 2026-05-08 23:30 | 8.67 | 5940 | 9930 (2010) | 49 (2006) | 2940 | 68 | 91 | 217 | 404 | 1760 | 4510 | 4960 | 8440 | 9590 |
| 2026-05-08 23:00 | 8.69 | 5970 | 9930 (2010) | 49 (2006) | 2940 | 68 | 91 | 217 | 404 | 1760 | 4510 | 4960 | 8440 | 9590 |
| 2026-05-08 22:30 | 8.66 | 5930 | 12000 (2013) | 49 (2006) | 3030 | 73 | 90 | 124 | 332 | 1750 | 4770 | 5620 | 8710 | 9480 |
| 2026-05-08 22:00 | 8.57 | 5810 | 12000 (2013) | 49 (2006) | 3030 | 73 | 90 | 124 | 332 | 1750 | 4770 | 5620 | 8710 | 9480 |
| 2026-05-08 21:30 | 8.56 | 5800 | 12000 (2013) | 49 (2006) | 3030 | 73 | 90 | 124 | 332 | 1750 | 4770 | 5620 | 8710 | 9480 |
| 2026-05-08 21:00 | 8.47 | 5690 | 12000 (2013) | 49 (2006) | 3030 | 73 | 90 | 124 | 332 | 1750 | 4770 | 5620 | 8710 | 9480 |
| 2026-05-08 20:30 | 8.42 | 5620 | 12000 (2013) | 49 (2006) | 3030 | 73 | 90 | 124 | 332 | 1750 | 4770 | 5620 | 8710 | 9480 |
| 2026-05-08 20:00 | 8.36 | 5550 | 12000 (2013) | 49 (2006) | 3030 | 73 | 90 | 124 | 332 | 1750 | 4770 | 5620 | 8710 | 9480 |
| 2026-05-08 19:30 | 8.30 | 5480 | 12000 (2013) | 49 (2006) | 3030 | 73 | 90 | 124 | 332 | 1750 | 4770 | 5620 | 8710 | 9480 |
| 2026-05-08 19:00 | 8.20 | 5350 | 12000 (2013) | 49 (2006) | 3030 | 73 | 90 | 124 | 332 | 1750 | 4770 | 5620 | 8710 | 9480 |
| 2026-05-08 18:30 | 8.11 | 5240 | 12000 (2013) | 49 (2006) | 3030 | 73 | 90 | 124 | 332 | 1750 | 4770 | 5620 | 8710 | 9480 |
| 2026-05-08 18:00 | 7.99 | 5090 | 12000 (2013) | 49 (2006) | 3030 | 73 | 90 | 124 | 332 | 1750 | 4770 | 5620 | 8710 | 9480 |
| 2026-05-08 17:30 | 7.85 | 4930 | 12000 (2013) | 49 (2006) | 3030 | 73 | 90 | 124 | 332 | 1750 | 4770 | 5620 | 8710 | 9480 |
| 2026-05-08 17:00 | 7.75 | 4810 | 12000 (2013) | 49 (2006) | 3030 | 73 | 90 | 124 | 332 | 1750 | 4770 | 5620 | 8710 | 9480 |
| 2026-05-08 16:30 | 7.60 | 4630 | 12000 (2013) | 49 (2006) | 3030 | 73 | 90 | 124 | 332 | 1750 | 4770 | 5620 | 8710 | 9480 |
| 2026-05-08 16:00 | 7.46 | 4470 | 12000 (2013) | 49 (2006) | 3030 | 73 | 90 | 124 | 332 | 1750 | 4770 | 5620 | 8710 | 9480 |
| 2026-05-08 15:30 | 7.32 | 4300 | 12000 (2013) | 49 (2006) | 3030 | 73 | 90 | 124 | 332 | 1750 | 4770 | 5620 | 8710 | 9480 |
| 2026-05-08 15:00 | 7.13 | 4050 | 12000 (2013) | 49 (2006) | 3030 | 73 | 90 | 124 | 332 | 1750 | 4770 | 5620 | 8710 | 9480 |
| 2026-05-08 14:30 | 6.99 | 3870 | 12000 (2013) | 49 (2006) | 3030 | 73 | 90 | 124 | 332 | 1750 | 4770 | 5620 | 8710 | 9480 |
| 2026-05-08 14:00 | 6.85 | 3700 | 12000 (2013) | 49 (2006) | 3030 | 73 | 90 | 124 | 332 | 1750 | 4770 | 5620 | 8710 | 9480 |
| 2026-05-08 13:30 | 6.67 | 3480 | 12000 (2013) | 49 (2006) | 3030 | 73 | 90 | 124 | 332 | 1750 | 4770 | 5620 | 8710 | 9480 |
| 2026-05-08 13:00 | 6.47 | 3250 | 12000 (2013) | 49 (2006) | 3030 | 73 | 90 | 124 | 332 | 1750 | 4770 | 5620 | 8710 | 9480 |
| 2026-05-08 12:30 | 6.27 | 3020 | 12000 (2013) | 49 (2006) | 3030 | 73 | 90 | 124 | 332 | 1750 | 4770 | 5620 | 8710 | 9480 |
| 2026-05-08 12:00 | 6.09 | 2820 | 12000 (2013) | 49 (2006) | 3030 | 73 | 90 | 124 | 332 | 1750 | 4770 | 5620 | 8710 | 9480 |
| 2026-05-08 11:30 | 5.92 | 2630 | 12000 (2013) | 49 (2006) | 3030 | 73 | 90 | 124 | 332 | 1750 | 4770 | 5620 | 8710 | 9480 |
| 2026-05-08 11:00 | 5.78 | 2490 | 12000 (2013) | 49 (2006) | 3030 | 73 | 90 | 124 | 332 | 1750 | 4770 | 5620 | 8710 | 9480 |
| 2026-05-08 10:30 | 5.71 | 2420 | 12000 (2013) | 49 (2006) | 3030 | 73 | 90 | 124 | 332 | 1750 | 4770 | 5620 | 8710 | 9480 |
| 2026-05-08 10:00 | 5.68 | 2390 | 12000 (2013) | 49 (2006) | 3030 | 73 | 90 | 124 | 332 | 1750 | 4770 | 5620 | 8710 | 9480 |
| 2026-05-08 09:30 | 5.70 | 2410 | 12000 (2013) | 49 (2006) | 3030 | 73 | 90 | 124 | 332 | 1750 | 4770 | 5620 | 8710 | 9480 |
| 2026-05-08 09:00 | 5.76 | 2470 | 12000 (2013) | 49 (2006) | 3030 | 73 | 90 | 124 | 332 | 1750 | 4770 | 5620 | 8710 | 9480 |
| 2026-05-08 08:30 | 5.82 | 2530 | 12000 (2013) | 49 (2006) | 3030 | 73 | 90 | 124 | 332 | 1750 | 4770 | 5620 | 8710 | 9480 |
| 2026-05-08 08:00 | 5.89 | 2600 | 12000 (2013) | 49 (2006) | 3030 | 73 | 90 | 124 | 332 | 1750 | 4770 | 5620 | 8710 | 9480 |
| 2026-05-08 07:30 | 5.99 | 2710 | 12000 (2013) | 49 (2006) | 3030 | 73 | 90 | 124 | 332 | 1750 | 4770 | 5620 | 8710 | 9480 |
| 2026-05-08 07:00 | 6.09 | 2820 | 12000 (2013) | 49 (2006) | 3030 | 73 | 90 | 124 | 332 | 1750 | 4770 | 5620 | 8710 | 9480 |
| 2026-05-08 06:30 | 6.24 | 2980 | 12000 (2013) | 49 (2006) | 3030 | 73 | 90 | 124 | 332 | 1750 | 4770 | 5620 | 8710 | 9480 |
| 2026-05-08 06:00 | 6.40 | 3160 | 12000 (2013) | 49 (2006) | 3030 | 73 | 90 | 124 | 332 | 1750 | 4770 | 5620 | 8710 | 9480 |
| 2026-05-08 05:30 | 6.57 | 3360 | 12000 (2013) | 49 (2006) | 3030 | 73 | 90 | 124 | 332 | 1750 | 4770 | 5620 | 8710 | 9480 |
| 2026-05-08 05:00 | 6.77 | 3600 | 12000 (2013) | 49 (2006) | 3030 | 73 | 90 | 124 | 332 | 1750 | 4770 | 5620 | 8710 | 9480 |
| 2026-05-08 04:30 | 6.99 | 3870 | 12000 (2013) | 49 (2006) | 3030 | 73 | 90 | 124 | 332 | 1750 | 4770 | 5620 | 8710 | 9480 |
| 2026-05-08 04:00 | 7.23 | 4180 | 12000 (2013) | 49 (2006) | 3030 | 73 | 90 | 124 | 332 | 1750 | 4770 | 5620 | 8710 | 9480 |
| 2026-05-08 03:30 | 7.46 | 4470 | 12000 (2013) | 49 (2006) | 3030 | 73 | 90 | 124 | 332 | 1750 | 4770 | 5620 | 8710 | 9480 |
| 2026-05-08 03:00 | 7.71 | 4760 | 12000 (2013) | 49 (2006) | 3030 | 73 | 90 | 124 | 332 | 1750 | 4770 | 5620 | 8710 | 9480 |
| 2026-05-08 02:30 | 7.94 | 5030 | 12000 (2013) | 49 (2006) | 3030 | 73 | 90 | 124 | 332 | 1750 | 4770 | 5620 | 8710 | 9480 |
| 2026-05-08 02:00 | 8.17 | 5310 | 12000 (2013) | 49 (2006) | 3030 | 73 | 90 | 124 | 332 | 1750 | 4770 | 5620 | 8710 | 9480 |
| 2026-05-08 01:30 | 8.33 | 5510 | 12000 (2013) | 49 (2006) | 3030 | 73 | 90 | 124 | 332 | 1750 | 4770 | 5620 | 8710 | 9480 |
| 2026-05-08 01:00 | 8.46 | 5680 | 12000 (2013) | 49 (2006) | 3030 | 73 | 90 | 124 | 332 | 1750 | 4770 | 5620 | 8710 | 9480 |
| 2026-05-08 00:30 | 8.49 | 5710 | 12000 (2013) | 49 (2006) | 3030 | 73 | 90 | 124 | 332 | 1750 | 4770 | 5620 | 8710 | 9480 |
| 2026-05-08 00:00 | 8.51 | 5740 | 12000 (2013) | 49 (2006) | 3030 | 73 | 90 | 124 | 332 | 1750 | 4770 | 5620 | 8710 | 9480 |
| 2026-05-07 23:30 | 8.48 | 5700 | 12000 (2013) | 49 (2006) | 3030 | 73 | 90 | 124 | 332 | 1750 | 4770 | 5620 | 8710 | 9480 |
| 2026-05-07 23:00 | 8.39 | 5590 | 12000 (2013) | 49 (2006) | 3030 | 73 | 90 | 124 | 332 | 1750 | 4770 | 5620 | 8710 | 9480 |
| 2026-05-07 22:30 | 8.33 | 5510 | 12100 (2013) | 53 (2006) | 3140 | 71 | 82 | 105 | 146 | 2200 | 4660 | 5330 | 9080 | 9820 |
| 2026-05-07 22:00 | 8.24 | 5400 | 12100 (2013) | 53 (2006) | 3140 | 71 | 82 | 105 | 146 | 2200 | 4660 | 5330 | 9080 | 9820 |
| 2026-05-07 21:30 | 8.18 | 5330 | 12100 (2013) | 53 (2006) | 3140 | 71 | 82 | 105 | 146 | 2200 | 4660 | 5330 | 9080 | 9820 |
| 2026-05-07 21:00 | 8.09 | 5220 | 12100 (2013) | 53 (2006) | 3140 | 71 | 82 | 105 | 146 | 2200 | 4660 | 5330 | 9080 | 9820 |
| 2026-05-07 20:30 | 8.01 | 5120 | 12100 (2013) | 53 (2006) | 3140 | 71 | 82 | 105 | 146 | 2200 | 4660 | 5330 | 9080 | 9820 |
| 2026-05-07 20:00 | 7.93 | 5020 | 12100 (2013) | 53 (2006) | 3140 | 71 | 82 | 105 | 146 | 2200 | 4660 | 5330 | 9080 | 9820 |
| 2026-05-07 19:30 | 7.84 | 4910 | 12100 (2013) | 53 (2006) | 3140 | 71 | 82 | 105 | 146 | 2200 | 4660 | 5330 | 9080 | 9820 |
| 2026-05-07 19:00 | 7.76 | 4820 | 12100 (2013) | 53 (2006) | 3140 | 71 | 82 | 105 | 146 | 2200 | 4660 | 5330 | 9080 | 9820 |
| 2026-05-07 18:30 | 7.66 | 4700 | 12100 (2013) | 53 (2006) | 3140 | 71 | 82 | 105 | 146 | 2200 | 4660 | 5330 | 9080 | 9820 |
| 2026-05-07 18:00 | 7.59 | 4620 | 12100 (2013) | 53 (2006) | 3140 | 71 | 82 | 105 | 146 | 2200 | 4660 | 5330 | 9080 | 9820 |
| 2026-05-07 17:30 | 7.51 | 4530 | 12100 (2013) | 53 (2006) | 3140 | 71 | 82 | 105 | 146 | 2200 | 4660 | 5330 | 9080 | 9820 |
| 2026-05-07 17:00 | 7.39 | 4390 | 12100 (2013) | 53 (2006) | 3140 | 71 | 82 | 105 | 146 | 2200 | 4660 | 5330 | 9080 | 9820 |
| 2026-05-07 16:30 | 7.30 | 4270 | 12100 (2013) | 53 (2006) | 3140 | 71 | 82 | 105 | 146 | 2200 | 4660 | 5330 | 9080 | 9820 |
| 2026-05-07 16:00 | 7.18 | 4110 | 12100 (2013) | 53 (2006) | 3140 | 71 | 82 | 105 | 146 | 2200 | 4660 | 5330 | 9080 | 9820 |
| 2026-05-07 15:30 | 7.06 | 3960 | 12100 (2013) | 53 (2006) | 3140 | 71 | 82 | 105 | 146 | 2200 | 4660 | 5330 | 9080 | 9820 |
| 2026-05-07 15:00 | 6.97 | 3850 | 12100 (2013) | 53 (2006) | 3140 | 71 | 82 | 105 | 146 | 2200 | 4660 | 5330 | 9080 | 9820 |
| 2026-05-07 14:30 | 6.91 | 3770 | 12100 (2013) | 53 (2006) | 3140 | 71 | 82 | 105 | 146 | 2200 | 4660 | 5330 | 9080 | 9820 |
| 2026-05-07 14:00 | 6.81 | 3650 | 12100 (2013) | 53 (2006) | 3140 | 71 | 82 | 105 | 146 | 2200 | 4660 | 5330 | 9080 | 9820 |
| 2026-05-07 13:30 | 6.72 | 3540 | 12100 (2013) | 53 (2006) | 3140 | 71 | 82 | 105 | 146 | 2200 | 4660 | 5330 | 9080 | 9820 |
| 2026-05-07 13:00 | 6.66 | 3470 | 12100 (2013) | 53 (2006) | 3140 | 71 | 82 | 105 | 146 | 2200 | 4660 | 5330 | 9080 | 9820 |
| 2026-05-07 12:30 | 6.53 | 3320 | 12100 (2013) | 53 (2006) | 3140 | 71 | 82 | 105 | 146 | 2200 | 4660 | 5330 | 9080 | 9820 |
| 2026-05-07 12:00 | 6.42 | 3190 | 12100 (2013) | 53 (2006) | 3140 | 71 | 82 | 105 | 146 | 2200 | 4660 | 5330 | 9080 | 9820 |
| 2026-05-07 11:30 | 6.28 | 3030 | 12100 (2013) | 53 (2006) | 3140 | 71 | 82 | 105 | 146 | 2200 | 4660 | 5330 | 9080 | 9820 |
| 2026-05-07 11:00 | 6.13 | 2860 | 12100 (2013) | 53 (2006) | 3140 | 71 | 82 | 105 | 146 | 2200 | 4660 | 5330 | 9080 | 9820 |
| 2026-05-07 10:30 | 6.02 | 2740 | 12100 (2013) | 53 (2006) | 3140 | 71 | 82 | 105 | 146 | 2200 | 4660 | 5330 | 9080 | 9820 |
| 2026-05-07 10:00 | 5.94 | 2660 | 12100 (2013) | 53 (2006) | 3140 | 71 | 82 | 105 | 146 | 2200 | 4660 | 5330 | 9080 | 9820 |
| 2026-05-07 09:30 | 5.91 | 2620 | 12100 (2013) | 53 (2006) | 3140 | 71 | 82 | 105 | 146 | 2200 | 4660 | 5330 | 9080 | 9820 |
| 2026-05-07 09:00 | 5.95 | 2670 | 12100 (2013) | 53 (2006) | 3140 | 71 | 82 | 105 | 146 | 2200 | 4660 | 5330 | 9080 | 9820 |
| 2026-05-07 08:30 | 6.02 | 2740 | 12100 (2013) | 53 (2006) | 3140 | 71 | 82 | 105 | 146 | 2200 | 4660 | 5330 | 9080 | 9820 |
| 2026-05-07 08:00 | 6.15 | 2880 | 12100 (2013) | 53 (2006) | 3140 | 71 | 82 | 105 | 146 | 2200 | 4660 | 5330 | 9080 | 9820 |
| 2026-05-07 07:30 | 6.29 | 3040 | 12100 (2013) | 53 (2006) | 3140 | 71 | 82 | 105 | 146 | 2200 | 4660 | 5330 | 9080 | 9820 |
| 2026-05-07 07:00 | 6.48 | 3260 | 12100 (2013) | 53 (2006) | 3140 | 71 | 82 | 105 | 146 | 2200 | 4660 | 5330 | 9080 | 9820 |
| 2026-05-07 06:30 | 6.65 | 3460 | 12100 (2013) | 53 (2006) | 3140 | 71 | 82 | 105 | 146 | 2200 | 4660 | 5330 | 9080 | 9820 |
| 2026-05-07 06:00 | 6.87 | 3720 | 12100 (2013) | 53 (2006) | 3140 | 71 | 82 | 105 | 146 | 2200 | 4660 | 5330 | 9080 | 9820 |
| 2026-05-07 05:30 | 7.09 | 4000 | 12100 (2013) | 53 (2006) | 3140 | 71 | 82 | 105 | 146 | 2200 | 4660 | 5330 | 9080 | 9820 |
| 2026-05-07 05:00 | 7.31 | 4280 | 12100 (2013) | 53 (2006) | 3140 | 71 | 82 | 105 | 146 | 2200 | 4660 | 5330 | 9080 | 9820 |
| 2026-05-07 04:30 | 7.53 | 4550 | 12100 (2013) | 53 (2006) | 3140 | 71 | 82 | 105 | 146 | 2200 | 4660 | 5330 | 9080 | 9820 |
| 2026-05-07 04:00 | 7.73 | 4780 | 12100 (2013) | 53 (2006) | 3140 | 71 | 82 | 105 | 146 | 2200 | 4660 | 5330 | 9080 | 9820 |
| 2026-05-07 03:30 | 7.91 | 5000 | 12100 (2013) | 53 (2006) | 3140 | 71 | 82 | 105 | 146 | 2200 | 4660 | 5330 | 9080 | 9820 |
| 2026-05-07 03:00 | 8.03 | 5140 | 12100 (2013) | 53 (2006) | 3140 | 71 | 82 | 105 | 146 | 2200 | 4660 | 5330 | 9080 | 9820 |
| 2026-05-07 02:30 | 8.15 | 5290 | 12100 (2013) | 53 (2006) | 3140 | 71 | 82 | 105 | 146 | 2200 | 4660 | 5330 | 9080 | 9820 |
| 2026-05-07 02:00 | 8.18 | 5330 | 12100 (2013) | 53 (2006) | 3140 | 71 | 82 | 105 | 146 | 2200 | 4660 | 5330 | 9080 | 9820 |
| 2026-05-07 01:30 | 8.19 | 5340 | 12100 (2013) | 53 (2006) | 3140 | 71 | 82 | 105 | 146 | 2200 | 4660 | 5330 | 9080 | 9820 |
| 2026-05-07 01:00 | 8.15 | 5290 | 12100 (2013) | 53 (2006) | 3140 | 71 | 82 | 105 | 146 | 2200 | 4660 | 5330 | 9080 | 9820 |
| 2026-05-07 00:30 | 8.14 | 5280 | 12100 (2013) | 53 (2006) | 3140 | 71 | 82 | 105 | 146 | 2200 | 4660 | 5330 | 9080 | 9820 |
| 2026-05-07 00:00 | 8.08 | 5200 | 12100 (2013) | 53 (2006) | 3140 | 71 | 82 | 105 | 146 | 2200 | 4660 | 5330 | 9080 | 9820 |
| 2026-05-06 23:30 | 8.07 | 5190 | 12100 (2013) | 53 (2006) | 3140 | 71 | 82 | 105 | 146 | 2200 | 4660 | 5330 | 9080 | 9820 |
| 2026-05-06 23:00 | 8.04 | 5160 | 12100 (2013) | 53 (2006) | 3140 | 71 | 82 | 105 | 146 | 2200 | 4660 | 5330 | 9080 | 9820 |
| 2026-05-06 22:30 | 8.02 | 5130 | 10700 (2002) | 57 (2006) | 2820 | 70 | 89 | 120 | 144 | 1770 | 4910 | 5560 | 9280 | 9650 |
| 2026-05-06 22:00 | 7.97 | 5070 | 10700 (2002) | 57 (2006) | 2820 | 70 | 89 | 120 | 144 | 1770 | 4910 | 5560 | 9280 | 9650 |
| 2026-05-06 21:30 | 7.95 | 5050 | 10700 (2002) | 57 (2006) | 2820 | 70 | 89 | 120 | 144 | 1770 | 4910 | 5560 | 9280 | 9650 |
| 2026-05-06 21:00 | 7.91 | 5000 | 10700 (2002) | 57 (2006) | 2820 | 70 | 89 | 120 | 144 | 1770 | 4910 | 5560 | 9280 | 9650 |
| 2026-05-06 20:30 | 7.89 | 4970 | 10700 (2002) | 57 (2006) | 2820 | 70 | 89 | 120 | 144 | 1770 | 4910 | 5560 | 9280 | 9650 |
| 2026-05-06 20:00 | 7.86 | 4940 | 10700 (2002) | 57 (2006) | 2820 | 70 | 89 | 120 | 144 | 1770 | 4910 | 5560 | 9280 | 9650 |
| 2026-05-06 19:30 | 7.81 | 4880 | 10700 (2002) | 57 (2006) | 2820 | 70 | 89 | 120 | 144 | 1770 | 4910 | 5560 | 9280 | 9650 |
| 2026-05-06 19:00 | 7.79 | 4850 | 10700 (2002) | 57 (2006) | 2820 | 70 | 89 | 120 | 144 | 1770 | 4910 | 5560 | 9280 | 9650 |
| 2026-05-06 18:30 | 7.74 | 4800 | 10700 (2002) | 57 (2006) | 2820 | 70 | 89 | 120 | 144 | 1770 | 4910 | 5560 | 9280 | 9650 |
| 2026-05-06 18:00 | 7.73 | 4780 | 10700 (2002) | 57 (2006) | 2820 | 70 | 89 | 120 | 144 | 1770 | 4910 | 5560 | 9280 | 9650 |
| 2026-05-06 17:30 | 7.67 | 4710 | 10700 (2002) | 57 (2006) | 2820 | 70 | 89 | 120 | 144 | 1770 | 4910 | 5560 | 9280 | 9650 |
| 2026-05-06 17:00 | 7.61 | 4640 | 10700 (2002) | 57 (2006) | 2820 | 70 | 89 | 120 | 144 | 1770 | 4910 | 5560 | 9280 | 9650 |
| 2026-05-06 16:30 | 7.51 | 4530 | 10700 (2002) | 57 (2006) | 2820 | 70 | 89 | 120 | 144 | 1770 | 4910 | 5560 | 9280 | 9650 |
| 2026-05-06 16:00 | 7.43 | 4430 | 10700 (2002) | 57 (2006) | 2820 | 70 | 89 | 120 | 144 | 1770 | 4910 | 5560 | 9280 | 9650 |
| 2026-05-06 15:30 | 7.33 | 4310 | 10700 (2002) | 57 (2006) | 2820 | 70 | 89 | 120 | 144 | 1770 | 4910 | 5560 | 9280 | 9650 |
| 2026-05-06 15:00 | 7.23 | 4180 | 10700 (2002) | 57 (2006) | 2820 | 70 | 89 | 120 | 144 | 1770 | 4910 | 5560 | 9280 | 9650 |
| 2026-05-06 14:30 | 7.12 | 4040 | 10700 (2002) | 57 (2006) | 2820 | 70 | 89 | 120 | 144 | 1770 | 4910 | 5560 | 9280 | 9650 |
| 2026-05-06 14:00 | 7.02 | 3910 | 10700 (2002) | 57 (2006) | 2820 | 70 | 89 | 120 | 144 | 1770 | 4910 | 5560 | 9280 | 9650 |
| 2026-05-06 13:30 | 6.94 | 3810 | 10700 (2002) | 57 (2006) | 2820 | 70 | 89 | 120 | 144 | 1770 | 4910 | 5560 | 9280 | 9650 |
| 2026-05-06 13:00 | 6.87 | 3720 | 10700 (2002) | 57 (2006) | 2820 | 70 | 89 | 120 | 144 | 1770 | 4910 | 5560 | 9280 | 9650 |
| 2026-05-06 12:30 | 6.82 | 3660 | 10700 (2002) | 57 (2006) | 2820 | 70 | 89 | 120 | 144 | 1770 | 4910 | 5560 | 9280 | 9650 |
| 2026-05-06 12:00 | 6.74 | 3560 | 10700 (2002) | 57 (2006) | 2820 | 70 | 89 | 120 | 144 | 1770 | 4910 | 5560 | 9280 | 9650 |
| 2026-05-06 11:30 | 6.64 | 3440 | 10700 (2002) | 57 (2006) | 2820 | 70 | 89 | 120 | 144 | 1770 | 4910 | 5560 | 9280 | 9650 |
| 2026-05-06 11:00 | 6.56 | 3350 | 10700 (2002) | 57 (2006) | 2820 | 70 | 89 | 120 | 144 | 1770 | 4910 | 5560 | 9280 | 9650 |
| 2026-05-06 10:30 | 6.41 | 3180 | 10700 (2002) | 57 (2006) | 2820 | 70 | 89 | 120 | 144 | 1770 | 4910 | 5560 | 9280 | 9650 |
| 2026-05-06 10:00 | 6.25 | 2990 | 10700 (2002) | 57 (2006) | 2820 | 70 | 89 | 120 | 144 | 1770 | 4910 | 5560 | 9280 | 9650 |
| 2026-05-06 09:30 | 6.04 | 2760 | 10700 (2002) | 57 (2006) | 2820 | 70 | 89 | 120 | 144 | 1770 | 4910 | 5560 | 9280 | 9650 |
| 2026-05-06 09:00 | 5.80 | 2510 | 10700 (2002) | 57 (2006) | 2820 | 70 | 89 | 120 | 144 | 1770 | 4910 | 5560 | 9280 | 9650 |
| 2026-05-06 08:30 | 5.57 | 2280 | 10700 (2002) | 57 (2006) | 2820 | 70 | 89 | 120 | 144 | 1770 | 4910 | 5560 | 9280 | 9650 |
| 2026-05-06 08:00 | 5.36 | 2060 | 10700 (2002) | 57 (2006) | 2820 | 70 | 89 | 120 | 144 | 1770 | 4910 | 5560 | 9280 | 9650 |
| 2026-05-06 07:30 | 5.22 | 1900 | 10700 (2002) | 57 (2006) | 2820 | 70 | 89 | 120 | 144 | 1770 | 4910 | 5560 | 9280 | 9650 |
| 2026-05-06 07:00 | 5.17 | 1840 | 10700 (2002) | 57 (2006) | 2820 | 70 | 89 | 120 | 144 | 1770 | 4910 | 5560 | 9280 | 9650 |
| 2026-05-06 06:30 | 5.20 | 1870 | 10700 (2002) | 57 (2006) | 2820 | 70 | 89 | 120 | 144 | 1770 | 4910 | 5560 | 9280 | 9650 |
| 2026-05-06 06:00 | 5.28 | 1960 | 10700 (2002) | 57 (2006) | 2820 | 70 | 89 | 120 | 144 | 1770 | 4910 | 5560 | 9280 | 9650 |
| 2026-05-06 05:30 | 5.38 | 2080 | 10700 (2002) | 57 (2006) | 2820 | 70 | 89 | 120 | 144 | 1770 | 4910 | 5560 | 9280 | 9650 |
| 2026-05-06 05:00 | 5.50 | 2210 | 10700 (2002) | 57 (2006) | 2820 | 70 | 89 | 120 | 144 | 1770 | 4910 | 5560 | 9280 | 9650 |
| 2026-05-06 04:30 | 5.65 | 2360 | 10700 (2002) | 57 (2006) | 2820 | 70 | 89 | 120 | 144 | 1770 | 4910 | 5560 | 9280 | 9650 |
| 2026-05-06 04:00 | 5.79 | 2500 | 10700 (2002) | 57 (2006) | 2820 | 70 | 89 | 120 | 144 | 1770 | 4910 | 5560 | 9280 | 9650 |
| 2026-05-06 03:30 | 5.98 | 2700 | 10700 (2002) | 57 (2006) | 2820 | 70 | 89 | 120 | 144 | 1770 | 4910 | 5560 | 9280 | 9650 |
| 2026-05-06 03:00 | 6.17 | 2910 | 10700 (2002) | 57 (2006) | 2820 | 70 | 89 | 120 | 144 | 1770 | 4910 | 5560 | 9280 | 9650 |
| 2026-05-06 02:30 | 6.36 | 3120 | 10700 (2002) | 57 (2006) | 2820 | 70 | 89 | 120 | 144 | 1770 | 4910 | 5560 | 9280 | 9650 |
| 2026-05-06 02:00 | 6.56 | 3350 | 10700 (2002) | 57 (2006) | 2820 | 70 | 89 | 120 | 144 | 1770 | 4910 | 5560 | 9280 | 9650 |
| 2026-05-06 01:30 | 6.75 | 3580 | 10700 (2002) | 57 (2006) | 2820 | 70 | 89 | 120 | 144 | 1770 | 4910 | 5560 | 9280 | 9650 |
| 2026-05-06 01:00 | 6.97 | 3850 | 10700 (2002) | 57 (2006) | 2820 | 70 | 89 | 120 | 144 | 1770 | 4910 | 5560 | 9280 | 9650 |
| 2026-05-06 00:30 | 7.15 | 4080 | 10700 (2002) | 57 (2006) | 2820 | 70 | 89 | 120 | 144 | 1770 | 4910 | 5560 | 9280 | 9650 |
| 2026-05-06 00:00 | 7.33 | 4310 | 10700 (2002) | 57 (2006) | 2820 | 70 | 89 | 120 | 144 | 1770 | 4910 | 5560 | 9280 | 9650 |
| 2026-05-05 23:30 | 7.48 | 4490 | 10700 (2002) | 57 (2006) | 2820 | 70 | 89 | 120 | 144 | 1770 | 4910 | 5560 | 9280 | 9650 |
| 2026-05-05 23:00 | 7.61 | 4640 | 10700 (2002) | 57 (2006) | 2820 | 70 | 89 | 120 | 144 | 1770 | 4910 | 5560 | 9280 | 9650 |
A total of 155 rows are displayed for years 1980 through 2025.